Date_and_time,latitude,longitude,wind_speed,RelWindDirFrom,WindDirFrom,air_pressure,air_temperature,relative_humidity,Temp,platform_speed_wrt_ground,air_pressure_at_mean_sea_level,platform_orientation
2019-10-30 23:50,51.6393483333333,-96.8027533333333,7.3,9.6,239,992.82,-3.7,83,4.49,0.0,1021.14,155.7
2019-10-31 00:00,51.6393483333333,-96.8027533333333,6.6,9.2,251,992.77,-3.8,82,4.48,0.0,1021.09,165.4
2019-10-31 00:10,51.6393483333333,-96.8027533333333,5.3,7.5,251,992.81,-3.8,82,4.47,0.0,1021.14,165.4
2019-10-31 00:20,51.6393466666667,-96.8027316666667,5.8,8.5,242,992.74,-3.8,79,4.46,0.0,1021.08,165.4
2019-10-31 00:30,51.6393483333333,-96.8027433333333,6.9,9.7,232,992.76,-3.8,77,4.46,0.0,1021.10,165.4
2019-10-31 00:40,51.6393483333333,-96.8027466666667,6.4,8.6,231,992.78,-3.8,75,4.45,0.0,1021.13,165.4
2019-10-31 00:50,51.63935,-96.8027483333333,6.5,11.0,231,992.69,-3.8,72,4.46,0.0,1021.06,165.4
2019-10-31 01:00,51.6393466666667,-96.80275,6.4,9.1,222,992.63,-3.8,72,4.46,0.0,1021.00,260.8
2019-10-31 01:10,51.6393466666667,-96.8027566666667,4.8,6.3,220,992.69,-3.8,73,4.47,0.0,1021.05,260.8
2019-10-31 01:20,51.63935,-96.80275,5.5,7.6,218,992.65,-3.8,71,4.47,0.0,1021.02,260.8
2019-10-31 01:30,51.63935,-96.8027483333333,7.2,9.6,210,992.53,-3.8,70,4.47,0.0,1020.91,260.8
2019-10-31 01:40,51.6393516666667,-96.8027533333333,7.4,10.4,218,992.52,-3.8,69,4.47,0.0,1020.91,260.8
2019-10-31 01:50,51.63935,-96.8027433333333,6.6,8.8,208,992.46,-3.8,70,4.46,0.0,1020.85,260.8
2019-10-31 02:00,51.63935,-96.8027466666667,7.1,9.4,201,992.39,-3.6,71,4.46,0.0,1020.77,90.0
2019-10-31 02:10,51.6393483333333,-96.802745,7.8,11.7,200,992.29,-3.6,71,4.45,0.0,1020.66,90.0
2019-10-31 02:20,51.6393483333333,-96.802745,8.8,12.1,198,992.14,-3.7,69,4.45,0.0,1020.51,90.0
2019-10-31 02:30,51.639335,-96.8027416666667,8.0,10.5,206,992.13,-3.8,70,4.38,0.0,1020.51,90.0
2019-10-31 02:40,51.6393483333333,-96.80275,8.3,9.9,214,992.14,-3.9,74,4.34,0.0,1020.53,90.0
2019-10-31 02:50,51.63935,-96.8027483333333,8.2,11.0,212,992.11,-4.0,75,4.34,0.0,1020.50,90.0
2019-10-31 03:00,51.6393516666667,-96.80275,7.1,10.1,213,992.09,-4.0,75,4.29,0.0,1020.49,90.0
2019-10-31 03:10,51.6393483333333,-96.80275,6.7,9.2,215,992.01,-4.0,76,4.28,0.0,1020.41,90.0
2019-10-31 03:20,51.63935,-96.8027483333333,6.3,8.1,209,991.95,-4.2,76,4.30,0.0,1020.35,90.0
2019-10-31 03:30,51.6393483333333,-96.80275,5.7,7.5,203,991.91,-4.1,77,4.31,0.0,1020.30,90.0
2019-10-31 03:40,51.6393483333333,-96.80275,5.0,6.5,211,991.85,-4.1,78,4.28,0.0,1020.24,90.0
2019-10-31 03:50,51.6393483333333,-96.80275,5.3,7.2,203,991.72,-4.2,78,4.29,0.0,1020.11,90.0
2019-10-31 04:00,51.6393466666667,-96.80275,6.0,8.0,214,991.60,-4.3,78,4.31,0.0,1019.98,0.0
2019-10-31 04:10,51.6393466666667,-96.80275,5.8,7.4,211,991.53,-4.3,79,4.32,0.0,1019.92,0.0
2019-10-31 04:20,51.6393466666667,-96.8027483333333,5.3,6.9,214,991.44,-4.4,79,4.29,0.0,1019.83,0.0
2019-10-31 04:30,51.639315,-96.8027233333333,4.9,6.6,207,991.39,-4.3,80,4.26,0.0,1019.78,0.0
2019-10-31 04:40,51.6393366666667,-96.8027383333333,5.0,6.5,208,991.29,-4.2,79,4.27,0.0,1019.69,0.0
2019-10-31 04:50,51.6393433333333,-96.8027466666667,6.2,8.4,209,991.19,-4.2,80,4.24,0.0,1019.58,0.0
2019-10-31 05:00,51.639345,-96.8027566666667,7.0,8.6,212,991.07,-4.3,79,4.20,0.0,1019.46,240.2
2019-10-31 05:10,51.6393433333333,-96.8027766666667,5.5,7.3,208,990.86,-4.3,79,4.20,0.0,1019.25,240.2
2019-10-31 05:20,51.639345,-96.802765,6.1,8.0,200,990.72,-4.2,78,4.20,0.0,1019.10,240.2
2019-10-31 05:30,51.6393483333333,-96.8027616666667,7.6,9.8,202,990.61,-4.3,78,4.17,0.0,1019.00,240.2
2019-10-31 05:40,51.6393483333333,-96.8027583333333,7.6,9.7,208,990.52,-4.4,78,4.13,0.0,1018.91,240.2
2019-10-31 05:50,51.6393483333333,-96.8027533333333,7.2,9.4,208,990.48,-4.5,79,4.11,0.0,1018.88,240.2
2019-10-31 06:00,51.6393483333333,-96.8027516666667,7.0,9.6,212,990.38,-4.6,79,4.10,0.0,1018.78,90.0
2019-10-31 06:10,51.6393483333333,-96.8027516666667,7.0,8.5,210,990.25,-4.7,80,4.08,0.0,1018.66,90.0
2019-10-31 06:20,51.6393483333333,-96.8027516666667,6.8,9.6,209,990.17,-4.7,80,4.06,0.0,1018.57,90.0
2019-10-31 06:30,51.6393483333333,-96.8027483333333,6.5,8.6,213,990.17,-4.8,81,4.08,0.0,1018.57,90.0
2019-10-31 06:40,51.639345,-96.8027533333333,5.9,7.7,222,990.07,-4.8,82,4.13,0.0,1018.48,90.0
2019-10-31 06:50,51.6393466666667,-96.80275,5.8,7.3,221,989.99,-5.1,82,4.17,0.0,1018.41,90.0
2019-10-31 07:00,51.6393483333333,-96.8027516666667,6.1,8.3,218,989.93,-5.2,83,4.19,0.0,1018.34,0.0
2019-10-31 07:10,51.6393483333333,-96.8027516666667,6.2,8.3,217,989.86,-5.2,84,4.20,0.0,1018.27,0.0
2019-10-31 07:20,51.6393466666667,-96.8027516666667,6.4,9.0,206,989.78,-5.2,85,4.18,0.0,1018.20,0.0
2019-10-31 07:30,51.639345,-96.8027516666667,7.4,9.3,206,989.68,-5.2,84,4.15,0.0,1018.10,0.0
2019-10-31 07:40,51.639345,-96.8027516666667,8.6,11.2,202,989.52,-5.2,85,4.11,0.0,1017.94,0.0
2019-10-31 07:50,51.639345,-96.8027516666667,8.9,11.8,202,989.35,-5.2,85,4.07,0.0,1017.77,0.0
2019-10-31 08:00,51.6393433333333,-96.8027516666667,8.9,10.8,202,989.16,-5.3,86,4.04,0.0,1017.58,90.0
2019-10-31 08:10,51.6393433333333,-96.8027516666667,8.3,11.0,206,989.03,-5.3,86,4.02,0.0,1017.45,90.0
2019-10-31 08:20,51.6393433333333,-96.80275,8.2,10.7,215,988.87,-5.2,86,3.99,0.0,1017.29,90.0
2019-10-31 08:30,51.6393433333333,-96.8027516666667,7.5,9.6,215,988.70,-5.0,86,3.96,0.0,1017.10,90.0
2019-10-31 08:40,51.6393433333333,-96.8027516666667,6.8,8.6,211,988.54,-5.0,86,3.93,0.0,1016.96,90.0
2019-10-31 08:50,51.6393433333333,-96.8027516666667,7.2,8.8,199,988.31,-5.0,87,3.89,0.0,1016.73,90.0
2019-10-31 09:00,51.639345,-96.80275,8.1,10.2,199,988.13,-5.0,87,3.87,0.0,1016.54,143.7
2019-10-31 09:10,51.6393433333333,-96.8027516666667,8.2,10.3,201,988.00,-5.0,87,3.89,0.0,1016.41,143.7
2019-10-31 09:20,51.63936,-96.80275,8.4,11.2,198,987.83,-4.9,87,3.89,0.0,1016.23,143.7
2019-10-31 09:30,51.6393533333333,-96.802745,8.5,11.8,196,987.69,-4.8,87,3.87,0.0,1016.07,143.7
2019-10-31 09:40,51.6393533333333,-96.8027483333333,8.7,11.1,199,987.54,-4.8,87,3.88,0.0,1015.92,143.7
2019-10-31 09:50,51.63935,-96.80275,8.4,11.8,199,987.43,-4.9,87,3.89,0.0,1015.81,143.7
2019-10-31 10:00,51.6393516666667,-96.80276,7.5,9.7,199,987.36,-4.9,87,3.88,0.0,1015.75,270.0
2019-10-31 10:10,51.6393516666667,-96.8027583333333,7.8,10.4,177,987.15,-3.8,85,3.88,0.0,1015.46,270.0
2019-10-31 10:20,51.639355,-96.8027483333333,9.5,11.8,176,986.97,-3.1,82,3.87,0.0,1015.23,270.0
2019-10-31 10:30,51.639355,-96.8027683333333,9.3,12.0,174,986.75,-3.2,83,3.87,0.0,1015.01,270.0
2019-10-31 10:40,51.63935,-96.80276,8.6,11.7,176,986.72,-3.0,82,3.86,0.0,1014.97,270.0
2019-10-31 10:50,51.63935,-96.8027666666667,9.4,11.8,176,986.69,-3.0,83,3.85,0.0,1014.94,270.0
2019-10-31 11:00,51.6393566666667,-96.8027533333333,8.9,11.7,176,986.59,-3.1,84,3.85,0.0,1014.84,14.8
2019-10-31 11:10,51.63936,-96.802755,9.2,12.7,172,986.36,-2.0,83,3.85,0.0,1014.55,14.8
2019-10-31 11:20,51.6393416666667,-96.8027416666667,7.8,11.5,184,986.17,-2.7,85,3.84,0.0,1014.38,14.8
2019-10-31 11:30,51.63935,-96.80276,5.7,7.8,214,985.96,-3.9,90,3.84,0.0,1014.22,14.8
2019-10-31 11:40,51.6393583333333,-96.8027366666667,6.0,7.4,218,985.90,-4.4,91,3.84,0.0,1014.20,14.8
2019-10-31 11:50,51.6393433333333,-96.8027316666667,5.7,7.5,208,985.73,-4.6,91,3.83,0.0,1014.03,14.8
2019-10-31 12:00,51.63829,-96.8015383333333,7.3,11.0,194,985.53,-4.1,90,3.81,0.5,1013.74,144.9
2019-10-31 12:10,51.62968,-96.7662516666667,12.7,16.0,159,985.21,-3.5,89,3.86,8.5,1013.34,144.9
2019-10-31 12:20,51.619965,-96.7279633333333,16.1,19.3,161,985.00,-2.8,83,4.45,9.2,1013.10,144.9
2019-10-31 12:30,51.598365,-96.7112783333333,23.4,29.5,177,984.26,-2.3,78,4.51,8.6,1012.29,144.9
2019-10-31 12:40,51.571535,-96.6974616666667,26.7,30.4,181,984.05,-2.1,81,4.33,10.1,1012.07,144.9
2019-10-31 12:50,51.54465,-96.6840933333333,26.5,29.6,181,984.04,-2.3,79,4.28,10.1,1012.08,144.9
2019-10-31 13:00,51.5176316666667,-96.6707233333333,26.2,29.1,179,983.96,-2.3,82,4.32,10.2,1011.94,146.0
2019-10-31 13:10,51.4901483333333,-96.6585366666667,26.4,29.0,178,983.83,-2.5,80,4.35,10.3,1011.85,146.0
2019-10-31 13:20,51.4629016666667,-96.6429516666667,26.4,29.5,175,983.79,-2.5,82,4.30,10.4,1011.87,146.0
2019-10-31 13:30,51.4350833333333,-96.6290516666667,25.8,29.5,180,983.90,-2.7,81,4.27,10.5,1012.02,146.0
2019-10-31 13:40,51.40732,-96.615245,25.8,28.4,177,983.90,-2.7,75,4.32,10.5,1012.03,146.0
2019-10-31 13:50,51.3798666666667,-96.6009266666667,25.5,28.8,176,983.69,-2.2,69,4.22,10.4,1011.76,146.0
2019-10-31 14:00,51.3527016666667,-96.5876,27.7,31.7,179,983.35,-1.5,62,4.46,10.2,1011.34,154.9
2019-10-31 14:10,51.3257,-96.5965416666667,27.6,30.7,187,982.90,-1.1,63,4.45,9.9,1010.83,154.9
2019-10-31 14:20,51.29903,-96.6128433333333,27.4,29.9,195,982.77,-1.2,67,4.45,10.3,1010.67,154.9
2019-10-31 14:30,51.2724783333333,-96.628315,27.3,30.3,196,982.60,-1.6,69,4.54,10.2,1010.50,154.9
2019-10-31 14:40,51.24565,-96.6257766666667,25.3,29.9,187,983.05,-1.8,70,4.54,9.7,1010.99,154.9
2019-10-31 14:50,51.2181366666667,-96.6105783333333,24.8,31.8,186,983.49,-1.5,71,4.55,10.5,1011.43,154.9
2019-10-31 15:00,51.1906033333333,-96.596965,30.5,34.5,181,982.72,-1.1,70,4.49,10.4,1010.63,164.0
2019-10-31 15:10,51.1661916666667,-96.6106616666667,28.8,32.9,181,982.32,-1.2,71,4.52,9.3,1010.22,164.0
2019-10-31 15:20,51.1409166666667,-96.621665,28.7,32.9,174,982.28,-1.3,78,4.56,9.4,1010.19,164.0
2019-10-31 15:30,51.115885,-96.6266566666667,29.3,34.5,176,981.97,-1.5,79,4.69,9.1,1009.88,164.0
2019-10-31 15:40,51.0930433333333,-96.6324016666667,29.4,34.9,179,981.89,-1.5,80,4.76,8.3,1009.78,164.0
2019-10-31 15:50,51.0655733333333,-96.6391216666667,30.8,35.2,184,981.77,-1.6,79,4.57,10.0,1009.62,164.0
2019-10-31 16:00,51.03776,-96.645915,29.9,33.2,183,981.85,-1.7,79,4.45,10.1,1009.69,178.1
2019-10-31 16:10,51.009805,-96.6516433333333,29.8,34.4,180,981.80,-1.7,79,4.36,10.1,1009.65,178.1
2019-10-31 16:20,50.9818366666667,-96.6582783333333,30.0,33.9,179,981.77,-1.8,78,3.97,10.2,1009.64,178.1
2019-10-31 16:30,50.9537266666667,-96.66339,30.2,33.1,177,981.66,-1.7,77,4.16,10.2,1009.53,178.1
2019-10-31 16:40,50.9289166666667,-96.6837983333333,29.1,33.5,184,981.87,-1.7,76,4.11,10.1,1009.73,178.1
2019-10-31 16:50,50.903945,-96.7053433333333,29.1,32.2,185,981.62,-1.6,75,4.12,10.2,1009.44,178.1
2019-10-31 17:00,50.8793916666667,-96.7277,29.1,33.1,182,981.32,-1.6,75,4.10,10.2,1009.14,190.6
2019-10-31 17:10,50.8547816666667,-96.750515,28.7,32.6,187,981.24,-1.3,76,4.05,10.3,1009.05,190.6
2019-10-31 17:20,50.8300433333333,-96.7731133333333,30.4,34.0,190,980.89,-1.0,72,4.29,10.3,1008.69,190.6
2019-10-31 17:30,50.8050916666667,-96.795555,29.9,32.7,195,980.79,-0.9,70,4.35,10.3,1008.58,190.6
2019-10-31 17:40,50.78012,-96.8184466666667,29.7,32.8,196,980.70,-0.9,68,4.40,10.4,1008.49,190.6
2019-10-31 17:50,50.7549983333333,-96.8410033333333,29.1,33.2,195,980.67,-1.0,66,4.33,10.4,1008.47,190.6
2019-10-31 18:00,50.7297833333333,-96.8637716666667,28.1,32.0,195,980.71,-1.0,65,4.32,10.5,1008.51,200.1
2019-10-31 18:10,50.70449,-96.8866566666667,27.4,30.7,198,980.69,-0.9,65,4.32,10.5,1008.49,200.1
2019-10-31 18:20,50.6789383333333,-96.9090916666667,28.0,30.7,202,980.37,-0.7,64,4.07,10.5,1008.14,200.1
2019-10-31 18:30,50.6532866666667,-96.9319733333333,28.0,31.1,199,980.32,-0.7,64,3.94,10.6,1008.10,200.1
2019-10-31 18:40,50.6323516666667,-96.96206,26.0,29.5,202,980.51,-0.6,64,3.84,10.2,1008.27,200.1
2019-10-31 18:50,50.6280316666667,-96.981145,16.8,24.9,208,981.33,-0.5,63,3.48,4.6,1009.11,200.1
2019-10-31 19:00,50.6304566666667,-96.9807683333333,13.2,19.2,198,981.65,-0.6,63,3.04,0.9,1009.44,207.6
2019-10-31 19:10,50.6304433333333,-96.980765,12.6,18.1,193,981.58,-0.4,64,2.64,0.0,1009.34,207.6
2019-10-31 19:20,50.6304433333333,-96.9807566666667,10.4,14.0,198,981.55,-0.3,64,2.61,0.0,1009.29,207.6
2019-10-31 19:30,50.6304416666667,-96.9807583333333,11.3,15.2,199,981.45,-0.2,63,2.63,0.0,1009.19,207.6
2019-10-31 19:40,50.6304433333333,-96.9807616666667,10.0,14.8,199,981.39,-0.1,64,2.63,0.0,1009.13,207.6
2019-10-31 19:50,50.630445,-96.9807633333333,10.3,15.1,200,981.35,-0.0,63,2.57,0.0,1009.08,207.6
2019-10-31 20:00,50.6304433333333,-96.9807633333333,10.7,16.2,200,981.24,0.1,62,2.56,0.0,1008.96,212.8
2019-10-31 20:10,50.6304433333333,-96.980765,10.6,15.0,194,981.12,0.2,63,2.60,0.0,1008.82,212.8
2019-10-31 20:20,50.6304466666667,-96.980755,12.0,16.3,192,980.99,0.4,64,2.57,0.0,1008.67,212.8
2019-10-31 20:30,50.63045,-96.980755,11.5,16.9,191,980.92,0.5,65,2.54,0.0,1008.59,212.8
2019-10-31 20:40,50.63045,-96.9807633333333,12.4,15.6,190,980.88,0.5,65,2.53,0.0,1008.54,212.8
2019-10-31 20:50,50.63045,-96.980765,12.8,18.7,193,981.00,0.5,66,2.55,0.0,1008.68,212.8
2019-10-31 21:00,50.6304516666667,-96.9807666666667,11.6,15.8,205,981.16,0.2,70,2.53,0.0,1008.85,216.8
2019-10-31 21:10,50.6304516666667,-96.980765,13.2,19.6,205,981.19,-0.2,73,2.51,0.0,1008.89,216.8
2019-10-31 21:20,50.6304516666667,-96.9807666666667,10.6,15.0,205,981.25,-0.4,78,2.54,0.0,1008.96,216.8
2019-10-31 21:30,50.63045,-96.9807683333333,9.3,12.5,204,981.29,-0.4,78,2.55,0.0,1008.99,216.8
2019-10-31 21:40,50.630435,-96.9807633333333,9.5,13.4,207,981.30,-0.3,78,2.53,0.0,1009.00,216.8
2019-10-31 21:50,50.6304333333333,-96.9807616666667,9.1,12.3,206,981.33,-0.4,81,2.56,0.0,1009.03,216.8
2019-10-31 22:00,50.630435,-96.9807616666667,10.3,15.2,209,981.40,-0.6,86,2.59,0.0,1009.10,156.5
2019-10-31 22:10,50.630435,-96.98076,9.4,13.3,207,981.44,-0.9,91,2.54,0.0,1009.15,156.5
2019-10-31 22:20,50.630435,-96.9807616666667,8.0,10.4,207,981.48,-1.0,95,2.52,0.0,1009.19,156.5
2019-10-31 22:30,50.6304366666667,-96.9807633333333,6.3,8.6,204,981.50,-1.1,98,2.51,0.0,1009.22,156.5
2019-10-31 22:40,50.6304366666667,-96.9807633333333,5.7,8.5,203,981.46,-1.2,99,2.49,0.0,1009.18,156.5
2019-10-31 22:50,50.6304383333333,-96.9807633333333,6.3,8.6,202,981.40,-1.2,99,2.51,0.0,1009.13,156.5
2019-10-31 23:00,50.6304383333333,-96.9807633333333,6.9,8.9,205,981.50,-1.2,99,2.52,0.0,1009.25,90.0
2019-10-31 23:10,50.630435,-96.980785,6.3,8.8,205,981.51,-1.1,99,2.51,0.0,1009.28,90.0
2019-10-31 23:20,50.6304383333333,-96.9807816666667,6.7,8.8,206,981.58,-1.2,99,2.51,0.0,1009.35,90.0
2019-10-31 23:30,50.630445,-96.98077,6.1,8.3,207,981.60,-1.2,99,2.53,0.0,1009.36,90.0
